Regional Weather Roundup
Issued by NWS

Home | Current Version | Previous Version | Graphics & Text | Print | Product List | Glossary Off
Versions: 1 2 3 4 5 6 7 8 9 10 11 12 13 14 15 16 17 18 19 20 21 22 23 24 25 26 27 28 29 30 31 32 33 34 35 36 37 38 39 40 41 42 43 44 45 46 47 48 49 50

677
ASUS43 KMKX 241500
RWRWI

WISCONSIN REGIONAL WEATHER ROUNDUP
NATIONAL WEATHER SERVICE MILWAUKEE/SULLIVAN WI
1000 AM CDT TUE MAY 24 2016

NOTE: "FAIR" INDICATES FEW OR NO CLOUDS BELOW 12,000 FEET WITH NO
SIGNIFICANT WEATHER AND/OR OBSTRUCTIONS TO VISIBILITY.

WIZ001-002-006>008-014>016-023>028-241600-
NORTHWEST WISCONSIN

CITY           SKY/WX    TMP DP  RH WIND       PRES   REMARKS
SUPERIOR ARPT  MOSUNNY   64  62  93 E8        29.85S
ASHLAND        HVY RAIN  63  63 100 MISG      29.86S FOG
HAYWARD        CLOUDY    67  60  78 W7        29.87R
SIREN          CLOUDY    64  62  92 W8        29.87R FOG
CUMBERLAND     CLOUDY    64  61  88 W8        29.87R
RICE LAKE      CLOUDY    67  60  78 S7        29.88S
CHETEK         CLOUDY    66  63  89 SW5       29.87S
LADYSMITH      CLOUDY    67  64  89 S6        29.89S
EAU CLAIRE     CLOUDY    69  63  81 SW8       29.87R
MENOMONIE      CLOUDY    67  67  99 SW3       29.87R
NEW RICHMOND   PTSUNNY   71  61  70 W9        29.86S
OSCEOLA        PTSUNNY   70  64  80 SW8       29.88S
$$

WIZ003>005-009-010-017-018-241600-
NORTH CENTRAL WISCONSIN

CITY           SKY/WX    TMP DP  RH WIND       PRES   REMARKS
MANITOWISH WTR CLOUDY    66  65  94 SW7       29.88F
ARBOR VITAE    CLOUDY    69  64  83 S12G17    29.89S
WOODRUFF       CLOUDY    69  64  83 S12G17    29.89S
RHINELANDER    CLOUDY    69  61  75 VRB7      29.91S
EAGLE RIVER      N/A     68  63  84 SW7       29.89F
LAND O LAKES   CLOUDY    67  64  91 SW6       29.90F
PHILLIPS       PTSUNNY   66  63  90 S8        29.88S
TOMAHAWK       CLOUDY    66  62  86 CALM      29.90F
MEDFORD        CLOUDY    64  60  85 SE9       29.89S
MERRILL        CLOUDY    67  60  79 S3        29.91S
$$

WIZ029-030-035-036-043>047-241600-
CENTRAL WISCONSIN

CITY           SKY/WX    TMP DP  RH WIND       PRES   REMARKS
WAUSAU         MOSUNNY   69  59  70 S6        29.89S
MOSINEE        MOSUNNY   66  61  82 S3        29.92S
MARSHFIELD     CLOUDY    71  57  61 SW7       29.90R
STEVENS POINT  CLOUDY    69  53  57 SW8       29.91S
WAUPACA        CLOUDY    73  54  50 S6        29.91S
WAUTOMA        PTSUNNY   73  56  54 SW9       29.93R
WISC RAPIDS    CLOUDY    71  55  56 S8        29.92R
CAMP DOUGLAS   NOT AVBL
$$

WIZ011>013-019>022-031-037>040-048>050-241600-
NORTHEAST WISCONSIN

CITY           SKY/WX    TMP DP  RH WIND       PRES   REMARKS
ANTIGO         CLOUDY    66  62  86 CALM      29.92F
SHAWANO        MOSUNNY   74  52  47 W3        29.91S
OCONTO         CLOUDY    73  53  49 CALM      29.89S
STURGEON BAY   NOT AVBL
GREEN BAY      MOSUNNY   76  53  44 S9        29.91S
MANITOWOC      NOT AVBL
APPLETON       PTSUNNY   73  52  46 SW8       29.90S
CLINTONVILLE   MOSUNNY   72  50  46 W5        29.91R
OSHKOSH        MOSUNNY   77  56  48 S10       29.92R
$$

WIZ032>034-041-042-053>061-241600-
SOUTHWEST WISCONSIN

CITY           SKY/WX    TMP DP  RH WIND       PRES   REMARKS
LA CROSSE      PTSUNNY   73  59  61 SW8       29.90R
SPARTA         CLOUDY    72  59  64 SW3       29.90S
VIROQUA        PTSUNNY   69  57  66 SW7       29.92S
BOSCOBEL       CLOUDY    73  58  59 S7        29.92S
PRAIRIE DU CHI PTSUNNY   71  58  64 SE3       29.91F
PLATTEVILLE    CLOUDY    72  57  60 SW9       29.95R
$$

WIZ056-057-062-063-064-067-068-241600-
SOUTH CENTRAL WISCONSIN

CITY           SKY/WX    TMP DP  RH WIND       PRES   REMARKS
REEDSBURG      CLOUDY    70  56  61 S7        29.92R
BARABOO/DELLS  CLOUDY    72  54  53 SW6       29.92S
LONE ROCK      NOT AVBL
MINERAL POINT  CLOUDY    72  55  56 S6        29.95R
MADISON        PTSUNNY   73  55  53 S7        29.94R
MIDDLETON      SUNNY     75  55  50 S8        29.94R
WATERTOWN      PTSUNNY   73  56  54 S10       29.95R
MONROE         MOSUNNY   72  54  53 S6        29.96R
JANESVILLE     SUNNY     77  55  47 S10       29.95S
$$

WIZ051-052-058>065-066-070>072-241600-
SOUTHEAST WISCONSIN

CITY           SKY/WX    TMP DP  RH WIND       PRES   REMARKS
MILWAUKEE      MOSUNNY   77  54  44 S13       29.96S
WAUKESHA       SUNNY     73  54  49 S9        29.97S
MILWAUKEE/TIMM SUNNY     75  48  38 SW10      29.96S
RACINE         SUNNY     77  52  41 SW10      29.98S
BURLINGTON     SUNNY     75  51  43 S10       29.96F
KENOSHA        SUNNY     77  53  43 SW12      29.98R
FOND DU LAC    SUNNY     77  55  46 SW10      29.93R
SHEBOYGAN      SUNNY     77  54  44 SW12      29.93F
WEST BEND      SUNNY     73  52  46 SW7       29.95S
JUNEAU         SUNNY     73  54  52 S12G18    29.95S
$$

LSZ147-162-241600-
LAKE SUPERIOR

STATION/POSITION TIME  TEMP    WIND        PRES    WAVE
                       AIR SEA DIR/SP/G            HT/PER
                 (UTC) (F)     (DEG/KT/KT) (MB)    (FT/S)
W MID LAKE BUOY  1350   44 38  360/  8/  8 1011.4F   1
DEVILS ISLAND    1400   53     300/  5/  6 1012.6R
PORT WING        1420           10/  5/ 13 1011.5
SAXON HARBOR     1400   60     210/  2/  4 1010.5S
$$

LMZ867-665-643>646-241600-
LAKE MICHIGAN

STATION/POSITION TIME  TEMP    WIND        PRES    WAVE
                       AIR SEA DIR/SP/G            HT/PER
                 (UTC) (F)     (DEG/KT/KT) (MB)    (FT/S)
CHAMBERS ISLAND  1400   66     170/  5/  9 1012.9R
N MID LAKE BUOY  1350   47 44  190/ 10/ 12 1013.2R   2/ 4
NORTHPORT PIER   1400          130/  6/  9 1012.5
SISTER BAY       1404   69     300/  9/  9   N/A
ALGOMA LAKESHORE 1416             CALM       N/A
KEWAUNEE LAKESHO 1400   54     160/  7/  8 1012.5F
SHEBOYGAN LAKESH 1400   67     180/ 10/ 11 1013.9F
PORT WASHINGTON  1440   64     180/  5/  7 1014.6F
S MID LAKE BUOY  1350   51 47  180/  8/  8 1015.8R   1
KENOSHA   LAKESH 1400   66     170/ 10/ 11 1014.6F
$$

TC  - TEMPERATURE IN CELSIUS
VSB - VISIBILITY IN STATUTE MILES
WCI - WIND CHILL INDEX
HX  - HEAT INDEX





USA.gov is the U.S. government's official web portal to all federal, state and local government web resources and services.